This is the latest recevied weather packets stored in our database for station/object DH5DY-6. If no packets are shown the sender has not sent any weather packets the latest 10 day(s).
| Time | Temp. | Humidity | Pressure | Rain* | Wind** | Luminosity | Snow |
|---|---|---|---|---|---|---|---|
| 1777612090 | 7.78° C | 61% | 1026 hPa | 0 mm | - | 56 W/m² | - |
| 1777611489 | 7.22° C | 61% | 1025.9 hPa | 0 mm | - | 37 W/m² | - |
| 1777610889 | 7.22° C | 61% | 1025.8 hPa | 0 mm | - | 16 W/m² | - |
| 1777610288 | 7.22° C | 61% | 1025.7 hPa | 0 mm | - | 12 W/m² | - |
| 1777609688 | 7.22° C | 61% | 1025.6 hPa | 0 mm | - | 9 W/m² | - |
| 1777609089 | 7.22° C | 62% | 1025.5 hPa | 0 mm | - | 7 W/m² | - |
| 1777608490 | 7.78° C | 60% | 1025.4 hPa | 0 mm | - | 0 W/m² | - |
| 1777607888 | 7.78° C | 60% | 1025.5 hPa | 0 mm | - | 0 W/m² | - |
| 1777607290 | 7.78° C | 60% | 1025.4 hPa | 0 mm | - | 0 W/m² | - |
| 1777606090 | 7.78° C | 61% | 1025.3 hPa | 0 mm | - | 0 W/m² | - |
| 1777604289 | 7.78° C | 61% | 1025.5 hPa | 0 mm | - | 0 W/m² | - |
| 1777603690 | 7.78° C | 61% | 1025.6 hPa | 0 mm | - | 0 W/m² | - |
| 1777603090 | 7.78° C | 62% | 1025.7 hPa | 0 mm | - | 0 W/m² | - |
| 1777600689 | 7.78° C | 63% | 1025.8 hPa | 0 mm | - | 0 W/m² | - |
| 1777600089 | 7.78° C | 64% | 1025.7 hPa | 0 mm | - | 0 W/m² | - |
| 1777598289 | 7.22° C | 65% | 1025.8 hPa | 0 mm | - | 0 W/m² | - |
| 1777597690 | 7.22° C | 66% | 1025.8 hPa | 0 mm | - | 0 W/m² | - |
| 1777597089 | 7.22° C | 65% | 1025.9 hPa | 0 mm | - | 0 W/m² | - |
| 1777596489 | 7.78° C | 64% | 1025.9 hPa | 0 mm | - | 0 W/m² | - |
| 1777595890 | 7.78° C | 64% | 1026 hPa | 0 mm | - | 0 W/m² | - |
| 1777595288 | 7.78° C | 63% | 1026.1 hPa | 0 mm | - | 0 W/m² | - |
| 1777594689 | 7.78° C | 63% | 1026.2 hPa | 0 mm | - | 0 W/m² | - |
| 1777594089 | 7.78° C | 64% | 1026.1 hPa | 0 mm | - | 0 W/m² | - |
| 1777592288 | 8.33° C | 63% | 1026.3 hPa | 0 mm | - | 0 W/m² | - |
| 1777591688 | 8.33° C | 62% | 1026.3 hPa | 0 mm | - | 0 W/m² | - |
* Rain latest hour (hover to see other rain measurements)
** Current wind speed in m/s (hover to see current wind gust speed)